Regional Weather Roundup
Issued by NWS Charleston, SC

Current Version | Previous Version | Graphics & Text | Print | Product List | Glossary On
Versions: 1 2 3 4 5 6 7 8 9 10 11 12 13 14 15 16 17 18 19 20 21 22 23 24 25 26 27 28 29 30 31 32 33 34 35 36 37 38 39 40 41 42 43 44 45 46 47 48 49 50
000
ASUS42 KCHS 311626
RWRCHS

REGIONAL WEATHER ROUNDUP
NATIONAL WEATHER SERVICE CHARLESTON SC
1100 AM EST SAT JAN 31 2015

NOTE: "FAIR" INDICATES FEW OR NO CLOUDS BELOW 12,000 FEET WITH NO
SIGNIFICANT WEATHER AND/OR OBSTRUCTIONS TO VISIBILITY.

NOT ALL STATIONS ARE QUALITY CONTROLLED BY THE NATIONAL
WEATHER SERVICE. USE DATA WITH CAUTION...ESPECIALLY
DEWPOINT OBSERVATIONS.

SCZ027-030-031-034>040-042>050-311700-
...SOUTHEAST SOUTH CAROLINA...

CITY           SKY/WX    TMP DP  RH WIND       PRES   REMARKS
N CHARLESTON   MOSUNNY   48   9  20 N7        30.42R
WATERFRONT PRK   N/A     43 N/A N/A N9          N/A
MOUNT PLEASANT FAIR      46  10  23 NW5       30.42R
PINOPOLIS        N/A     39  18  41 VRB3      30.33R
MONCKS CORNER  FAIR      45  14  29 N3        30.42R
SUMMERVILLE    FAIR      46  14  27 CALM      30.43R
BEAUFORT MCAS  SUNNY     46  20  35 E7        30.43R
BEAUFORT ARPT  NOT AVBL
HILTON HEAD IS MOSUNNY  N/A N/A N/A NE9       30.42R
WALTERBORO     SUNNY     46   3  17 E6        30.42R
ALLENDALE      FAIR      46  16  29 CALM      30.41S

...SOUTHERN MIDLANDS AND PEE DEE...

CITY           SKY/WX    TMP DP  RH WIND       PRES   REMARKS
GEORGETOWN     NOT AVBL
KINGSTREE      NOT AVBL
ORANGEBURG     SUNNY     44  12  27 VRB3      30.41R
BARNWELL       FAIR      46  18  31 NE6       30.42S
AIKEN          FAIR      45  16  31 CALM      30.42R
MANNING        FAIR      45  10  24 NW5       30.41S
COLUMBIA       MOSUNNY   43  16  33 CALM      30.41S
SUMTER         SUNNY     42  10  27 VRB2      30.39R
FLORENCE       SUNNY     42  10  27 NE6       30.41R
MYRTLE BEACH   SUNNY     43   9  24 N13       30.42
N MYRTLE BEACH SUNNY     42   7  23 N13G21    30.39R

$$

GAZ063-065-086>088-099>101-113>116-118-119-134>141-150-311700-
...SOUTHEAST GEORGIA...

CITY           SKY/WX    TMP DP  RH WIND       PRES   REMARKS
SAVANNAH ARPT  MOSUNNY   48  18  30 NE8       30.43R
HUNTER AAF     MOSUNNY   49  17  28 NE10      30.40R
FORT STEWART   SUNNY     49  17  27 E10       30.40R
STATESBORO     MOSUNNY   47  20  34 CALM      30.42R
SYLVANIA       SUNNY     46  22  37 CALM      30.43R
CLAXTON        FAIR      48  23  37 CALM      30.42R

...CSRA...CENTRAL AND FAR SOUTHEAST GEORGIA...

CITY           SKY/WX    TMP DP  RH WIND       PRES   REMARKS
THOMSON        SUNNY     47  24  40 CALM      30.45S
AUGUSTA-BUSH   SUNNY     45  20  36 CALM      30.42F
AUGUSTA-DANIEL SUNNY     45  14  28 VRB5      30.41S
SWAINSBORO     FAIR      48  -4  11 SE3       30.42R
VIDALIA        SUNNY     48  25  40 E7        30.41S
EASTMAN        FAIR      49  22  34 E5        30.43S
HAZLEHURST     FAIR      51  23  33 SE3       30.39F
ALMA           SUNNY     50  21  32 NE7       30.40S
WAYCROSS       SUNNY     55  28  36 E7        30.40S
JESUP          FAIR      54  25  32 CALM      30.42R
BAXLEY         FAIR      52  21  30 E6        30.40S
BRUNSWICK      SUNNY     54  32  43 NE14      30.41R
SAINT SIMONS   SUNNY     53  31  42 NE13      30.40R

$$

SCZ027-028-034-036>038-045-046-048>050-GAZ119-141-311700-
...LAKE AND SUPPLEMENTAL COASTAL OBSERVATIONS...

STATION/POSITION TIME  TEMP    WIND        PRES    WAVE   SWELL
                       AIR SEA DIR/SP/G            HT/PER HT/PER/DIR
                 (UTC) (F)     (DEG/KT/KT) (MB)    (FT/S) (FT/S/D)
UPR LAKE MARION  NOT AVBL
WINYAH BAY       1500   38      70/  8     1028.0S
LAKE MURRAY      1600   39     100/  2/  4 1029.1S
ACE BASIN NERRS  1545   45                   N/A
FORT PULASKI     1600   44 51   50/ 13/ 16 1030.4R
SAPELO ISLAND    1600   51      60/ 11     1030.0R

$$

ANZ835-935-AMZ111-154-330-350-352-354-370-450-454-472-311700-
...C-MAN AND BUOY OBSERVATIONS...

STATION/POSITION TIME  TEMP    WIND        PRES    WAVE   SWELL
                       AIR SEA DIR/SP/G            HT/PER HT/PER/DIR
                 (UTC) (F)     (DEG/KT/KT) (MB)    (FT/S) (FT/S/D)
BUOY 41004       1550   46 67   20/ 17/ 23 1028.6R   6/ 6
BUOY 41008       1550   49 54   50/ 14/ 16 1029.2R   5/ 6
FOLLY BEACH CMAN 1600   42      30/  9/ 11 1030.5R
CAPERS NEARSHORE NOT AVBL
FRIPP NEARSHORE  1500   45      50/ 16/ 19 1028.1R


STATION/POSITION TIME  TEMP    WIND        PRES    WAVE   SWELL
                       AIR SEA DIR/SP/G            HT/PER HT/PER/DIR
                 (UTC) (F)     (DEG/KT/KT) (MB)    (FT/S) (FT/S/D)
5E ST. MARYS GA  1521      56                N/A     4/ 5
FRYING PAN BUOY  1550   40 61   10/ 16/ 21 1029.2R   5/ 6   2/ 70/ 9
BUOY 41025       1550   34 60  340/ 27/ 33 1025.9R   7/ 7   3/320/11
CAPE LOOKOUT NC  1600   36     360/ 14/ 16 1028.1R
BUOY 41002       1550   53 69  330/ 19/ 25 1025.1R  12/ 9   8/320/ 9
BUOY 41010       1520   62 73   20/ 16/ 19 1025.8R
ST AUGUSTINE FL  1600   57      30/ 15/ 16 1028.1R


$$



USA.gov is the U.S. government's official web portal to all federal, state and local government web resources and services.